OpenBCM V1.13 (Linux)

Packet Radio Mailbox

DB0FHN

[JN59NK Nuernberg]

 Login: GUEST





  
I6KZR  > KEPLER   26.02.03 00:27l 1427 Lines 38819 Bytes #999 (0) @ WW
BID : 25652_IK6WID
Read: DB0FHN GUEST
Subj: Old Istantrak Keplerians #055
Path: DB0FHN<DB0ZWI<DB0HDF<DB0ERF<DB0FBB<DB0GOS<ON0AR<ON0AR<IK1ZNW<IK6PYS<
      IK6PYS<I6ZLO<IK6WID
Sent: 030225/2200Z @:IK6WID.#AP.IMAR.ITA.EU #:25652 [MONTE URANO]  FBB7.00i
From: I6KZR@IK6WID.#AP.IMAR.ITA.EU
To  : KEPLER@WW


Satellite: OSCAR 7
Catalog number: 07530
Epoch time:      103055.67718673
Element set:     177 
Inclination:      101.7600 deg
RA of node:       103.4074 deg
Eccentricity:    0.0012194
Arg of perigee:    67.7090 deg
Mean anomaly:     292.5272 deg
Mean motion:   12.53564503 rev/day
Decay rate:   -2.9000E-007 rev/day^2
Epoch rev:           29395
Checksum:              293

Satellite: GOES 2
Catalog number: 10061
Epoch time:      103051.70332233
Element set:     94 
Inclination:       14.1349 deg
RA of node:        13.4071 deg
Eccentricity:    0.0012974
Arg of perigee:   200.0160 deg
Mean anomaly:     159.9586 deg
Mean motion:    0.99400653 rev/day
Decay rate:   -2.7900E-006 rev/day^2
Epoch rev:            3885
Checksum:              261

Satellite: GOES 3
Catalog number: 10953
Epoch time:      103054.91954450
Element set:     932 
Inclination:       13.4124 deg
RA of node:        17.1908 deg
Eccentricity:    0.0005711
Arg of perigee:   342.4276 deg
Mean anomaly:      17.5680 deg
Mean motion:    1.00279348 rev/day
Decay rate:   -1.0899E-006 rev/day^2
Epoch rev:            4355
Checksum:              289

Satellite: GOES 6
Catalog number: 14050
Epoch time:      103053.03607911
Element set:     428 
Inclination:       10.4089 deg
RA of node:        35.5299 deg
Eccentricity:    0.0004291
Arg of perigee:   343.7591 deg
Mean anomaly:      16.2875 deg
Mean motion:    1.00303949 rev/day
Decay rate:    3.0999E-007 rev/day^2
Epoch rev:           13067
Checksum:              293

Satellite: OSCAR 10
Catalog number: 14129
Epoch time:      103053.29347507
Element set:     920 
Inclination:       25.9661 deg
RA of node:       163.6642 deg
Eccentricity:    0.6025305
Arg of perigee:   329.85Mean anomaly:       6.1874 deg
Mean motion:    2.05867335 rev/day
Decay rate:   -1.3500E-006 rev/day^2
Epoch rev:           12014
Checksum:              290

Satellite: OSCAR 11 (UoSA
Catalog number: 14781
Epoch time:      103055.97503434
Element set:     101 
Inclination:       98.1189 deg
RA of node:        29.9482 deg
Eccentricity:    0.0009142
Arg of perigee:   182.6863 deg
Mean anomaly:     177.4295 deg
Mean motion:   14.78016109 rev/day
Decay rate:    1.1109E-005 rev/day^2
Epoch rev:            1718
Checksum:              417

Satellite: NOAA 10
Catalog number: 16969
Epoch time:      103055.92870214
Element set:     678 
Inclination:       98.7307 deg
RA of node:        50.0256 deg
Eccentricity:    0.0013469
Arg of perigee:    70.0928 deg
Mean anomaly:     290.1702 deg
Mean motion:   14.27066829 rev/day
Decay rate:    1.3600E-006 rev/day^2
Epoch rev:           85481
Checksum:              316

Satellite: GOES 7
Catalog number: 17561
Epoch time:      103056.21115156
Element set:     863 
Inclination:        7.6141 deg
RA of node:        55.5065 deg
Eccentricity:    0.0005433
Arg of perigee:   264.5861 deg
Mean anomaly:      91.3511 deg
Mean motion:    1.00254571 rev/day
Decay rate:    3.0999E-007 rev/day^2
Epoch rev:            4180
Checksum:              276

Satellite: CCatalog number: 18129
Epoch time:      103055.77926900
Element set:     203 
Inclination:       82.9276 deg
RA of node:       141.9699 deg
Eccentricity:    0.0010457
Arg of perigee:   204.3114 deg
Mean anomaly:     155.7536 deg
Mean motion:   13.72701434 rev/day
Decay rate:    5.2000E-007 rev/day^2
Epoch rev:           78536
Checksum:              315

Satellite: EUTELSAT 1-F4 
Catalog number: 18351
Epoch time:      103051.98344187
Element set:     42 
Inclination:        7.2019 deg
RA of node:        58.6515 deg
Eccentricity:    0.0006906
Arg of perigee:   200.6778 deg
Mean anomaly:     159.4474 deg
Mean motion:    0.9868708Decay rate:   -3.7999E-007 rev/day^2
Epoch rev:            4270
Checksum:              340

Satellite: NOAA 11
Catalog number: 19531
Epoch time:      103055.94851821
Element set:     516 
Inclination:       98.8997 deg
RA of node:       137.3100 deg
Eccentricity:    0.0011762
Arg of perigee:   180.5720 deg
Mean anomaly:     179.5439 deg
Mean motion:   14.14541252 rev/day
Decay rate:    1.8599E-006 rev/day^2
Epoch rev:           74370
Checksum:              323

Satellite: ASTRA 1A
Catalog number: 19688
Epoch time:      103056.07808924
Element set:     580 
Inclination:        1.4162 deg
RA of node:        95.0461Eccentricity:    0.0004605
Arg of perigee:   239.4834 deg
Mean anomaly:     213.2784 deg
Mean motion:    1.00272959 rev/day
Decay rate:    2.0999E-007 rev/day^2
Epoch rev:            3226
Checksum:              305

Satellite: OSCAR 14 (UOSA
Catalog number: 20437
Epoch time:      103055.72071325
Element set:     172 
Inclination:       98.2692 deg
RA of node:        99.0387 deg
Eccentricity:    0.0010549
Arg of perigee:   179.0052 deg
Mean anomaly:     181.1153 deg
Mean motion:   14.31240172 rev/day
Decay rate:    1.0300E-006 rev/day^2
Epoch rev:           68337
Checksum:              279

Satellite: OSCAR 15 (UOSA
Catalog numbeEpoch time:      103055.60485129
Element set:     780 
Inclination:       98.2460 deg
RA of node:        88.0239 deg
Eccentricity:    0.0009422
Arg of perigee:   190.9510 deg
Mean anomaly:     169.1469 deg
Mean motion:   14.30199844 rev/day
Decay rate:    7.9000E-007 rev/day^2
Epoch rev:           68302
Checksum:              321

Satellite: OSCAR 16 (PACS
Catalog number: 20439
Epoch time:      103055.73460780
Element set:     856 
Inclination:       98.3159 deg
RA of node:       110.7730 deg
Eccentricity:    0.0010612
Arg of perigee:   186.0232 deg
Mean anomaly:     174.0809 deg
Mean motion:   14.31474200 rev/day
Decay rate:    8.4999E-007 rev/day^2
Epoch rev: Checksum:              309

Satellite: OSCAR 17 (DOVE
Catalog number: 20440
Epoch time:      103055.72232589
Element set:     737 
Inclination:       98.3369 deg
RA of node:       114.6695 deg
Eccentricity:    0.0010601
Arg of perigee:   184.8157 deg
Mean anomaly:     175.2929 deg
Mean motion:   14.31753132 rev/day
Decay rate:    1.7099E-006 rev/day^2
Epoch rev:           68348
Checksum:              332

Satellite: OSCAR 18 (WEBE
Catalog number: 20441
Epoch time:      103056.55378521
Element set:     20 
Inclination:       98.3325 deg
RA of node:       114.6734 deg
Eccentricity:    0.0011373
Arg of perigee:   1Mean anomaly:     176.4777 deg
Mean motion:   14.31556381 rev/day
Decay rate:    1.1399E-006 rev/day^2
Epoch rev:           68358
Checksum:              315

Satellite: OSCAR 19 (LUSA
Catalog number: 20442
Epoch time:      103056.25186524
Element set:     971 
Inclination:       98.3446 deg
RA of node:       117.4192 deg
Eccentricity:    0.0011618
Arg of perigee:   183.6820 deg
Mean anomaly:     176.4277 deg
Mean motion:   14.31719807 rev/day
Decay rate:    1.4500E-006 rev/day^2
Epoch rev:           68359
Checksum:              320

Satellite: JAS 1B (FUJI 2
Catalog number: 20480
Epoch time:      103055.93821890
Element set:   Inclination:       99.0474 deg
RA of node:        17.4831 deg
Eccentricity:    0.0540701
Arg of perigee:   349.4657 deg
Mean anomaly:       9.5470 deg
Mean motion:   12.83330406 rev/day
Decay rate:   -5.9999E-008 rev/day^2
Epoch rev:           61133
Checksum:              328

Satellite: HST
Catalog number: 20580
Epoch time:      103056.23090891
Element set:     339 
Inclination:       28.4693 deg
RA of node:       354.7980 deg
Eccentricity:    0.0003683
Arg of perigee:   339.2055 deg
Mean anomaly:     168.3790 deg
Mean motion:   14.97845977 rev/day
Decay rate:    1.6579E-005 rev/day^2
Epoch rev:           50363
Checksum:              345

Satellite: EUTECatalog number: 20777
Epoch time:      103055.75572645
Element set:     37 
Inclination:        3.5162 deg
RA of node:        84.4956 deg
Eccentricity:    0.0002215
Arg of perigee:   310.2513 deg
Mean anomaly:     107.4540 deg
Mean motion:    1.00270552 rev/day
Decay rate:   -1.1099E-006 rev/day^2
Epoch rev:            2616
Checksum:              263

Satellite: FENGYUN 1B
Catalog number: 20788
Epoch time:      103056.52692527
Element set:     890 
Inclination:       99.0268 deg
RA of node:        38.6386 deg
Eccentricity:    0.0015570
Arg of perigee:   208.8358 deg
Mean anomaly:     151.1948 deg
Mean motion:   14.02136169 reDecay rate:    5.2000E-007 rev/day^2
Epoch rev:           63851
Checksum:              322

Satellite: EUTELSAT 2-F2
Catalog number: 21056
Epoch time:      103055.70812763
Element set:     619 
Inclination:        2.7492 deg
RA of node:        87.9423 deg
Eccentricity:    0.0004739
Arg of perigee:   166.4246 deg
Mean anomaly:     203.3883 deg
Mean motion:    1.00279541 rev/day
Decay rate:    1.0600E-006 rev/day^2
Epoch rev:            3194
Checksum:              286

Satellite: INFORMATOR 1
Catalog number: 21087
Epoch time:      103056.18088861
Element set:     601 
Inclination:       82.9437 deg
RA of node:    Eccentricity:    0.0033547
Arg of perigee:   231.3792 deg
Mean anomaly:     128.4359 deg
Mean motion:   13.74927443 rev/day
Decay rate:    9.0999E-007 rev/day^2
Epoch rev:           60579
Checksum:              331

Satellite: COSMOS 2123
Catalog number: 21089
Epoch time:      103055.87424669
Element set:     523 
Inclination:       82.9231 deg
RA of node:       176.7011 deg
Eccentricity:    0.0027638
Arg of perigee:   269.6779 deg
Mean anomaly:      90.1209 deg
Mean motion:   13.74404866 rev/day
Decay rate:    5.6999E-007 rev/day^2
Epoch rev:           60465
Checksum:              453

